�������l�o���
Date,Time,MP-1(��Sv/h),MP-2(��Sv/h),MP-3(��Sv/h),MP-4(��Sv/h),MP-5(��Sv/h),MP-6(��Sv/h),MP-7(��Sv/h),MP-8(��Sv/h),����,����(m/s),���J
2024/05/31,00:00,0.491,0.759,0.478,0.925,0.677,0.311,0.542,0.507,��,6.7,��
2024/05/31,00:10,0.493,0.759,0.479,0.927,0.677,0.312,0.543,0.505,��,8.8,��
2024/05/31,00:20,0.491,0.758,0.479,0.924,0.676,0.311,0.544,0.507,��,8.1,��
2024/05/31,00:30,0.492,0.758,0.477,0.927,0.677,0.311,0.544,0.507,��,8.4,��
2024/05/31,00:40,0.492,0.760,0.479,0.926,0.678,0.310,0.543,0.505,��,8.0,��
2024/05/31,00:50,0.491,0.757,0.479,0.926,0.676,0.310,0.544,0.506,��,8.7,��
2024/05/31,01:00,0.492,0.759,0.479,0.925,0.674,0.311,0.543,0.506,��,6.8,��
2024/05/31,01:10,0.491,0.757,0.478,0.927,0.677,0.310,0.543,0.506,��,7.7,��
2024/05/31,01:20,0.492,0.759,0.478,0.928,0.676,0.311,0.543,0.505,��,6.7,��
2024/05/31,01:30,0.493,0.758,0.477,0.926,0.677,0.310,0.543,0.506,��쐼,5.3,��
2024/05/31,01:40,0.492,0.758,0.477,0.924,0.676,0.311,0.543,0.506,��,5.4,��
2024/05/31,01:50,0.490,0.757,0.479,0.926,0.677,0.311,0.544,0.506,��,6.4,��
2024/05/31,02:00,0.493,0.757,0.480,0.928,0.676,0.312,0.543,0.505,��,4.0,��
2024/05/31,02:10,0.492,0.757,0.480,0.926,0.675,0.311,0.543,0.508,��,3.6,��
2024/05/31,02:20,0.493,0.760,0.479,0.927,0.677,0.312,0.544,0.507,��,6.1,��
2024/05/31,02:30,0.495,0.757,0.478,0.927,0.676,0.311,0.544,0.505,��,7.8,��
2024/05/31,02:40,0.493,0.759,0.479,0.926,0.675,0.313,0.543,0.506,��,6.5,��
2024/05/31,02:50,0.492,0.758,0.481,0.928,0.676,0.313,0.544,0.508,��,7.7,��
2024/05/31,03:00,0.493,0.756,0.479,0.924,0.676,0.312,0.543,0.507,��,8.5,��
2024/05/31,03:10,0.493,0.758,0.480,0.927,0.673,0.312,0.543,0.506,��쓌,11.7,��
2024/05/31,03:20,0.491,0.757,0.478,0.925,0.676,0.312,0.545,0.507,��,11.0,��
2024/05/31,03:30,0.492,0.756,0.479,0.926,0.675,0.311,0.545,0.507,��,10.0,��
2024/05/31,03:40,0.492,0.755,0.479,0.926,0.675,0.311,0.544,0.507,��,5.8,�L
2024/05/31,03:50,0.494,0.756,0.480,0.928,0.675,0.310,0.542,0.507,��쐼,4.0,�L
2024/05/31,04:00,0.492,0.756,0.478,0.926,0.675,0.311,0.543,0.506,��쐼,2.3,�L
2024/05/31,04:10,0.494,0.757,0.479,0.929,0.677,0.312,0.544,0.507,��,2.3,�L
2024/05/31,04:20,0.493,0.760,0.481,0.927,0.677,0.311,0.545,0.507,��,5.5,�L
2024/05/31,04:30,0.494,0.756,0.480,0.927,0.675,0.311,0.543,0.507,��쐼,5.4,�L
2024/05/31,04:40,0.492,0.757,0.478,0.926,0.675,0.311,0.543,0.507,��,4.5,�L
2024/05/31,04:50,0.492,0.754,0.479,0.928,0.674,0.313,0.544,0.506,��,4.3,�L
2024/05/31,05:00,0.490,0.753,0.477,0.925,0.674,0.311,0.542,0.504,��,4.6,�L
2024/05/31,05:10,0.491,0.750,0.477,0.925,0.671,0.311,0.543,0.504,��쓌,7.9,�L
2024/05/31,05:20,0.489,0.750,0.476,0.923,0.670,0.310,0.542,0.504,��쓌,9.7,�L
2024/05/31,05:30,0.488,0.747,0.474,0.924,0.670,0.309,0.540,0.503,��,6.9,�L
2024/05/31,05:40,0.488,0.747,0.475,0.922,0.669,0.311,0.541,0.503,�쐼,5.0,�L
2024/05/31,05:50,0.488,0.748,0.473,0.924,0.669,0.310,0.541,0.502,�쐼,5.1,�L
2024/05/31,06:00,0.489,0.748,0.473,0.925,0.671,0.311,0.539,0.502,�쐼,5.3,�L
2024/05/31,06:10,0.488,0.746,0.474,0.922,0.667,0.311,0.540,0.501,�쐼,5.7,�L
2024/05/31,06:20,0.486,0.744,0.473,0.922,0.666,0.310,0.541,0.502,��쐼,5.0,�L
2024/05/31,06:30,0.486,0.746,0.472,0.920,0.666,0.311,0.540,0.502,��쐼,5.8,�L
2024/05/31,06:40,0.486,0.743,0.472,0.918,0.665,0.310,0.539,0.501,��쐼,5.1,�L
2024/05/31,06:50,0.486,0.744,0.472,0.919,0.667,0.309,0.539,0.501,��,5.1,�L
2024/05/31,07:00,0.486,0.743,0.471,0.917,0.665,0.309,0.540,0.501,��,4.6,�L
2024/05/31,07:10,0.485,0.743,0.473,0.919,0.664,0.310,0.539,0.502,��,3.8,�L
2024/05/31,07:20,0.485,0.743,0.472,0.917,0.664,0.310,0.539,0.502,��쓌,5.6,�L
2024/05/31,07:30,0.485,0.744,0.471,0.917,0.664,0.309,0.539,0.500,��쓌,9.1,�L
2024/05/31,07:40,0.485,0.742,0.470,0.919,0.662,0.306,0.538,0.500,��,6.8,�L
2024/05/31,07:50,0.482,0.740,0.471,0.916,0.663,0.309,0.538,0.500,��쐼,5.6,�L
2024/05/31,08:00,0.483,0.740,0.469,0.916,0.660,0.310,0.538,0.501,��쐼,5.4,�L
2024/05/31,08:10,0.486,0.737,0.469,0.914,0.663,0.307,0.538,0.500,��쓌,5.4,�L
2024/05/31,08:20,0.481,0.738,0.471,0.914,0.658,0.305,0.536,0.499,��쓌,6.8,�L
2024/05/31,08:30,0.483,0.736,0.468,0.914,0.659,0.307,0.538,0.500,��쓌,8.2,�L
2024/05/31,08:40,0.481,0.736,0.469,0.915,0.660,0.307,0.539,0.500,��쓌,9.1,�L
2024/05/31,08:50,0.482,0.736,0.468,0.914,0.658,0.308,0.538,0.497,��,8.8,�L
2024/05/31,09:00,0.482,0.735,0.468,0.912,0.659,0.307,0.537,0.498,��,8.8,�L
2024/05/31,09:10,0.481,0.733,0.466,0.912,0.657,0.306,0.536,0.499,��,7.1,�L
2024/05/31,09:20,0.482,0.733,0.466,0.911,0.657,0.307,0.537,0.498,��,6.9,�L
2024/05/31,09:30,0.479,0.732,0.466,0.910,0.654,0.306,0.536,0.498,��쓌,6.7,�L
2024/05/31,09:40,0.480,0.731,0.467,0.908,0.656,0.307,0.536,0.498,��쓌,6.7,�L
2024/05/31,09:50,0.478,0.730,0.467,0.908,0.654,0.308,0.536,0.498,��쓌,7.2,�L
2024/05/31,10:00,0.479,0.732,0.466,0.907,0.654,0.307,0.537,0.499,��,6.3,�L
2024/05/31,10:10,0.478,0.731,0.465,0.908,0.652,0.307,0.536,0.498,��쓌,5.9,�L
2024/05/31,10:20,0.478,0.730,0.465,0.907,0.653,0.307,0.537,0.497,��,6.8,�L
2024/05/31,10:30,0.479,0.730,0.466,0.907,0.654,0.307,0.535,0.497,��,5.5,�L
2024/05/31,10:40,0.480,0.730,0.468,0.902,0.654,0.307,0.535,0.496,��,4.9,�L
2024/05/31,10:50,0.478,0.731,0.468,0.905,0.653,0.307,0.535,0.498,��,3.5,�L
2024/05/31,11:00,0.478,0.729,0.468,0.904,0.654,0.306,0.535,0.496,��쓌,3.6,�L
2024/05/31,11:10,0.479,0.729,0.468,0.903,0.654,0.307,0.536,0.497,��쓌,2.9,�L
2024/05/31,11:20,0.479,0.731,0.466,0.905,0.653,0.307,0.534,0.498,��,4.0,�L
2024/05/31,11:30,0.478,0.728,0.468,0.903,0.652,0.306,0.535,0.499,��,1.7,�L
2024/05/31,11:40,0.477,0.730,0.468,0.902,0.654,0.307,0.536,0.497,��쐼,1.2,�L
2024/05/31,11:50,0.478,0.730,0.467,0.902,0.653,0.306,0.536,0.495,�쐼,2.0,�L
2024/05/31,12:00,0.478,0.731,0.467,0.905,0.653,0.306,0.536,0.498,�쐼,2.6,�L
2024/05/31,12:10,0.478,0.731,0.468,0.904,0.651,0.306,0.536,0.497,���쐼,1.7,�L
2024/05/31,12:20,0.478,0.730,0.467,0.902,0.655,0.306,0.535,0.498,-,CALM,�L
2024/05/31,12:30,0.478,0.732,0.468,0.904,0.654,0.307,0.535,0.496,�k,0.6,�L
2024/05/31,12:40,0.479,0.733,0.468,0.903,0.653,0.307,0.536,0.498,�k��,0.6,�L
2024/05/31,12:50,0.476,0.732,0.469,0.902,0.654,0.307,0.535,0.495,�k��,0.6,�L
2024/05/31,13:00,0.477,0.730,0.469,0.904,0.653,0.307,0.536,0.496,���k��,1.7,�L
2024/05/31,13:10,0.477,0.730,0.467,0.904,0.654,0.306,0.536,0.498,�k��,2.0,�L
2024/05/31,13:20,0.476,0.732,0.468,0.903,0.654,0.306,0.535,0.497,�k��,2.5,�L
2024/05/31,13:30,0.478,0.732,0.468,0.904,0.657,0.308,0.534,0.496,�k��,2.6,�L
2024/05/31,13:40,0.480,0.733,0.470,0.905,0.656,0.308,0.537,0.495,�k��,2.8,�L
2024/05/31,13:50,0.480,0.732,0.469,0.906,0.659,0.309,0.537,0.498,�k��,3.1,�L
2024/05/31,14:00,0.480,0.732,0.470,0.904,0.657,0.308,0.536,0.497,�k�k��,2.6,�L
2024/05/31,14:10,0.480,0.730,0.470,0.905,0.657,0.308,0.537,0.498,�k,2.3,�L
2024/05/31,14:20,0.479,0.733,0.470,0.903,0.658,0.310,0.538,0.497,�k�k��,2.2,�L
2024/05/31,14:30,0.479,0.732,0.471,0.905,0.658,0.311,0.537,0.496,�k,2.2,�L
2024/05/31,14:40,0.480,0.733,0.469,0.904,0.658,0.309,0.535,0.498,�k�k��,2.8,�L
2024/05/31,14:50,0.479,0.731,0.470,0.905,0.658,0.309,0.537,0.498,�k,2.9,��
2024/05/31,15:00,0.480,0.733,0.468,0.904,0.656,0.309,0.536,0.496,�k�k��,3.5,��
2024/05/31,15:10,0.479,0.732,0.469,0.904,0.657,0.307,0.536,0.498,�k,3.7,��
2024/05/31,15:20,0.478,0.732,0.468,0.905,0.656,0.306,0.538,0.500,�k,4.0,��
2024/05/31,15:30,0.477,0.730,0.468,0.904,0.654,0.306,0.538,0.499,�k,3.5,�L
2024/05/31,15:40,0.478,0.730,0.466,0.902,0.654,0.306,0.539,0.498,�k,3.9,��
2024/05/31,15:50,0.477,0.730,0.465,0.905,0.653,0.306,0.537,0.498,�k,4.6,��
2024/05/31,16:00,0.477,0.731,0.466,0.904,0.655,0.306,0.537,0.497,�k,4.9,�L
2024/05/31,16:10,0.479,0.729,0.465,0.903,0.653,0.306,0.538,0.498,�k,5.3,�L
2024/05/31,16:20,0.477,0.727,0.466,0.903,0.652,0.306,0.537,0.495,�k,5.4,�L
2024/05/31,16:30,0.477,0.731,0.465,0.905,0.655,0.306,0.538,0.497,�k,5.2,�L
2024/05/31,16:40,0.478,0.731,0.464,0.901,0.654,0.307,0.537,0.497,�k,4.7,��
2024/05/31,16:50,0.476,0.731,0.466,0.907,0.655,0.306,0.537,0.497,�k,4.7,��
2024/05/31,17:00,0.478,0.729,0.464,0.904,0.653,0.305,0.537,0.498,�k,5.8,�L
2024/05/31,17:10,0.477,0.732,0.465,0.904,0.654,0.305,0.538,0.498,�k,5.6,�L
2024/05/31,17:20,0.479,0.730,0.463,0.905,0.654,0.305,0.537,0.498,�k�k��,5.7,��
2024/05/31,17:30,0.477,0.731,0.464,0.903,0.654,0.305,0.537,0.498,�k�k��,5.7,��
2024/05/31,17:40,0.477,0.731,0.466,0.903,0.655,0.304,0.537,0.498,�k,5.8,��
2024/05/31,17:50,0.478,0.732,0.465,0.906,0.654,0.304,0.537,0.498,�k,6.2,��
2024/05/31,18:00,0.478,0.732,0.467,0.904,0.655,0.306,0.537,0.500,�k,5.9,��
2024/05/31,18:10,0.478,0.734,0.465,0.906,0.656,0.306,0.535,0.499,�k,6.2,��
2024/05/31,18:20,0.480,0.732,0.465,0.907,0.656,0.305,0.536,0.499,�k,6.6,��
2024/05/31,18:30,0.480,0.734,0.465,0.904,0.656,0.306,0.536,0.500,�k,6.4,�L
2024/05/31,18:40,0.478,0.731,0.466,0.906,0.655,0.306,0.538,0.499,�k,6.3,�L
2024/05/31,18:50,0.479,0.731,0.467,0.906,0.657,0.306,0.537,0.502,�k,7.0,�L
2024/05/31,19:00,0.479,0.732,0.467,0.903,0.657,0.307,0.536,0.500,�k,7.4,��
2024/05/31,19:10,0.480,0.734,0.469,0.905,0.658,0.307,0.536,0.501,�k,6.2,��
2024/05/31,19:20,0.481,0.734,0.468,0.906,0.657,0.306,0.536,0.501,�k,6.7,��
2024/05/31,19:30,0.479,0.733,0.468,0.905,0.660,0.306,0.536,0.500,�k,5.7,��
2024/05/31,19:40,0.481,0.735,0.468,0.905,0.657,0.306,0.534,0.501,�k,6.0,��
2024/05/31,19:50,0.481,0.736,0.468,0.906,0.656,0.306,0.536,0.499,�k,5.6,�L
2024/05/31,20:00,0.480,0.735,0.468,0.906,0.659,0.306,0.538,0.500,�k,4.9,�L
2024/05/31,20:10,0.480,0.735,0.468,0.906,0.658,0.307,0.535,0.502,�k�k��,4.4,�L
2024/05/31,20:20,0.481,0.736,0.469,0.905,0.659,0.307,0.536,0.501,�k�k��,4.6,��
2024/05/31,20:30,0.480,0.735,0.468,0.907,0.660,0.308,0.535,0.500,�k�k��,5.4,��
2024/05/31,20:40,0.480,0.735,0.468,0.906,0.657,0.308,0.537,0.502,�k,4.8,��
2024/05/31,20:50,0.481,0.736,0.467,0.907,0.659,0.307,0.536,0.501,�k,4.3,��
2024/05/31,21:00,0.480,0.737,0.468,0.906,0.660,0.308,0.536,0.501,�k,4.6,��
2024/05/31,21:10,0.482,0.737,0.468,0.907,0.659,0.308,0.536,0.502,�k,4.9,��
2024/05/31,21:20,0.480,0.735,0.468,0.906,0.659,0.308,0.538,0.502,�k�k��,4.3,��
2024/05/31,21:30,0.481,0.737,0.468,0.907,0.660,0.307,0.538,0.503,�k,5.4,��
2024/05/31,21:40,0.482,0.735,0.468,0.907,0.660,0.306,0.539,0.501,�k,5.0,��
2024/05/31,21:50,0.482,0.735,0.469,0.908,0.660,0.307,0.537,0.502,�k,4.9,�L
2024/05/31,22:00,0.482,0.735,0.470,0.906,0.660,0.307,0.537,0.501,�k,4.3,��
2024/05/31,22:10,0.481,0.736,0.469,0.907,0.660,0.308,0.537,0.500,�k,3.9,�L
2024/05/31,22:20,0.481,0.737,0.467,0.908,0.661,0.308,0.537,0.501,�k,2.6,�L
2024/05/31,22:30,0.483,0.738,0.469,0.908,0.661,0.308,0.537,0.500,�k,2.9,�L
2024/05/31,22:40,0.482,0.736,0.469,0.907,0.661,0.308,0.538,0.501,�k�k��,3.1,�L
2024/05/31,22:50,0.481,0.737,0.469,0.908,0.659,0.308,0.538,0.500,�k�k��,3.1,�L
2024/05/31,23:00,0.481,0.736,0.469,0.909,0.659,0.308,0.537,0.500,�k�k��,3.0,�L
2024/05/31,23:10,0.482,0.737,0.470,0.909,0.660,0.308,0.538,0.501,�k�k��,2.8,�L
2024/05/31,23:20,0.482,0.738,0.470,0.909,0.660,0.309,0.536,0.501,�k��,3.1,�L
2024/05/31,23:30,0.481,0.735,0.471,0.910,0.659,0.308,0.537,0.501,�k�k��,2.5,�L
2024/05/31,23:40,0.482,0.735,0.469,0.909,0.660,0.308,0.536,0.502,�k�k��,3.3,�L
2024/05/31,23:50,0.483,0.738,0.469,0.908,0.660,0.309,0.537,0.500,�k�k��,4.0,�L
